Duncan, OK

1:02 AM CDT on August 18, 2017 (GMT -0500)
Halliburton

Weather History for KDUC - October, 2012

Change the Weather History Date:

Wednesday, October 17, 2012

  Actual Average (KLAW) Record (KLAW)
Temperature  
Mean Temperature 70 °F -  
Max Temperature 80 °F 75 °F 98 °F (1972)
Min Temperature 60 °F 48 °F 0 °F (2013)
Cooling Degree Days 5    
Growing Degree Days 20 (Base 50)    
Moisture  
Dew Point 50 °F    
Average Humidity 57    
Maximum Humidity 100    
Minimum Humidity 26    
Precipitation  
Precipitation 0.00 in - - ()
Sea Level Pressure  
Sea Level Pressure 29.63 in    
Wind  
Wind Speed 11 mph (NNW)    
Max Wind Speed 26 mph    
Max Gust Speed 36 mph    
Visibility 10 miles    
Events      
Averages and records for this station are not official NWS values.
T = Trace of Precipitation, MM = Missing Value Source: NWS Daily Summary

Daily Weather History Graph

Daily Weather History Graph

Search for Another Location

Airport or City:

Trip Planner

Search our weather history database for the weather conditions in past years. The results will help you decide how hot, cold, wet, or windy it might be!

Date:

Astronomy

Oct. 17, 2012 Rise Set
Actual Time 7:39 AM CDT 6:54 PM CDT
Civil Twilight 7:13 AM CDT 7:19 PM CDT
Nautical Twilight 6:44 AM CDT 7:48 PM CDT
Astronomical Twilight 6:15 AM CDT 8:17 PM CDT
Moon 10:07 AM CDT (10/17) 8:39 PM CDT (10/17)
Length of Visible Light 12h 05m
Length of Day
11h 14m
Waxing Crescent, 7% of the Moon is Illuminated
Oct 17
Waxing Crescent
Oct 21
First Quarter
Oct 29
Full
Nov 6
Last Quarter
Nov 13
New

Hourly Weather History & Observations

Time (CDT) Temp. Dew Point Humidity Pressure Visibility Wind Dir Wind Speed Gust Speed Precip Events Conditions
12:15 AM 64.4 °F 60.8 °F 88% 29.60 in 10.0 mi SSE 8.1 mph - N/A   Clear
12:35 AM 64.4 °F 60.8 °F 88% 29.59 in 10.0 mi South 8.1 mph - N/A   Clear
12:55 AM 64.4 °F 60.8 °F 88% 29.58 in 10.0 mi SSE 8.1 mph - N/A   Clear
1:15 AM 62.6 °F 60.8 °F 94% 29.57 in 10.0 mi South 8.1 mph - N/A   Clear
1:55 AM 62.6 °F 60.8 °F 94% 29.57 in 10.0 mi SSE 6.9 mph - N/A   Clear
2:15 AM 62.6 °F 60.8 °F 94% 29.57 in 10.0 mi SSE 6.9 mph - N/A   Clear
2:35 AM 62.6 °F 62.6 °F 100% 29.56 in 10.0 mi SSE 6.9 mph - N/A   Clear
2:55 AM 62.6 °F 62.6 °F 100% 29.56 in 10.0 mi SE 5.8 mph - N/A   Clear
3:15 AM 62.6 °F 62.6 °F 100% 29.55 in 10.0 mi SSE 6.9 mph - N/A   Clear
3:55 AM 62.6 °F 62.6 °F 100% 29.53 in 10.0 mi SSE 9.2 mph - N/A   Clear
4:15 AM 62.6 °F 62.6 °F 100% 29.51 in 10.0 mi South 10.4 mph - N/A   Clear
4:35 AM 62.6 °F 62.6 °F 100% 29.51 in 7.0 mi South 8.1 mph - N/A   Clear
4:55 AM 62.6 °F 62.6 °F 100% 29.50 in 7.0 mi South 10.4 mph - N/A   Clear
5:15 AM 64.4 °F 64.4 °F 100% 29.49 in 10.0 mi South 13.8 mph - N/A   Clear
5:35 AM 64.4 °F 64.4 °F 100% 29.49 in 10.0 mi South 12.7 mph - N/A   Clear
5:55 AM 64.4 °F 64.4 °F 100% 29.49 in 10.0 mi SSW 10.4 mph - N/A   Clear
6:15 AM 64.4 °F 64.4 °F 100% 29.49 in 10.0 mi SSW 10.4 mph - N/A   Clear
6:35 AM 66.2 °F 64.4 °F 94% 29.48 in 10.0 mi SSW 10.4 mph - N/A   Clear
6:55 AM 66.2 °F 64.4 °F 94% 29.48 in 10.0 mi SSW 12.7 mph 17.3 mph N/A   Clear
7:15 AM 66.2 °F 62.6 °F 88% 29.48 in 10.0 mi SSW 11.5 mph - N/A   Clear
7:35 AM 64.4 °F 62.6 °F 94% 29.49 in 10.0 mi SSW 9.2 mph - N/A   Clear
7:55 AM 64.4 °F 62.6 °F 94% 29.49 in 10.0 mi SSW 9.2 mph - N/A   Clear
8:15 AM 66.2 °F 62.6 °F 88% 29.49 in 10.0 mi SW 9.2 mph - N/A   Clear
8:35 AM 68.0 °F 62.6 °F 83% 29.49 in 10.0 mi SW 11.5 mph 17.3 mph N/A   Clear
8:55 AM 68.0 °F 60.8 °F 78% 29.49 in 10.0 mi WSW 11.5 mph - N/A   Clear
9:15 AM 68.0 °F 59.0 °F 73% 29.50 in 10.0 mi WSW 12.7 mph 18.4 mph N/A   Clear
9:35 AM 69.8 °F 55.4 °F 60% 29.52 in 10.0 mi West 13.8 mph 19.6 mph N/A   Clear
9:55 AM 69.8 °F 50.0 °F 49% 29.54 in 10.0 mi WNW 16.1 mph 23.0 mph N/A   Clear
10:15 AM 69.8 °F 51.8 °F 53% 29.55 in 10.0 mi NW 13.8 mph - N/A   Clear
10:35 AM 71.6 °F 51.8 °F 50% 29.54 in 10.0 mi NNW 16.1 mph 23.0 mph N/A   Clear
10:55 AM 73.4 °F 53.6 °F 50% 29.55 in 10.0 mi North 12.7 mph 19.6 mph N/A   Clear
11:15 AM 75.2 °F 53.6 °F 47% 29.55 in 10.0 mi North 17.3 mph 27.6 mph N/A   Clear
11:35 AM 77.0 °F 51.8 °F 41% 29.57 in 10.0 mi North 19.6 mph 32.2 mph N/A   Clear
11:55 AM 78.8 °F 53.6 °F 42% 29.58 in 10.0 mi North 12.7 mph 23.0 mph N/A   Clear
12:15 PM 78.8 °F 51.8 °F 39% 29.60 in 10.0 mi North 20.7 mph 29.9 mph N/A   Clear
12:35 PM 78.8 °F 51.8 °F 39% 29.61 in 10.0 mi North 19.6 mph 27.6 mph N/A   Clear
12:55 PM 78.8 °F 51.8 °F 39% 29.62 in 10.0 mi North 19.6 mph 29.9 mph N/A   Clear
1:15 PM 78.8 °F 51.8 °F 39% 29.62 in 10.0 mi North 26.5 mph 35.7 mph N/A   Clear
1:35 PM 78.8 °F 51.8 °F 39% 29.63 in 10.0 mi North 19.6 mph 29.9 mph N/A   Clear
1:55 PM 78.8 °F 50.0 °F 36% 29.63 in 10.0 mi NNW 16.1 mph 32.2 mph N/A   Clear
2:15 PM 78.8 °F 50.0 °F 36% 29.64 in 10.0 mi North 18.4 mph 27.6 mph N/A   Clear
2:35 PM 80.6 °F 48.2 °F 32% 29.64 in 10.0 mi North 18.4 mph 23.0 mph N/A   Clear
2:55 PM 80.6 °F 46.4 °F 30% 29.65 in 10.0 mi NNW 20.7 mph 25.3 mph N/A   Clear
3:15 PM 80.6 °F 44.6 °F 28% 29.65 in 10.0 mi NNW 12.7 mph 23.0 mph N/A   Clear
3:35 PM 78.8 °F 42.8 °F 28% 29.67 in 10.0 mi NNW 24.2 mph 32.2 mph N/A   Clear
3:55 PM 78.8 °F 41.0 °F 26% 29.67 in 10.0 mi North 18.4 mph 26.5 mph N/A   Clear
4:15 PM 77.0 °F 41.0 °F 28% 29.69 in 10.0 mi North 18.4 mph 25.3 mph N/A   Clear
4:35 PM 77.0 °F 42.8 °F 29% 29.70 in 10.0 mi North 15.0 mph 25.3 mph N/A   Clear
4:55 PM 77.0 °F 42.8 °F 29% 29.71 in 10.0 mi North 15.0 mph - N/A   Clear
5:15 PM 77.0 °F 42.8 °F 29% 29.72 in 10.0 mi NNW 16.1 mph 19.6 mph N/A   Clear
5:35 PM 77.0 °F 42.8 °F 29% 29.72 in 10.0 mi North 12.7 mph 19.6 mph N/A   Clear
5:55 PM 75.2 °F 42.8 °F 31% 29.72 in 10.0 mi NNW 11.5 mph 17.3 mph N/A   Clear
6:15 PM 73.4 °F 41.0 °F 31% 29.73 in 10.0 mi North 10.4 mph - N/A   Clear
6:35 PM 73.4 °F 41.0 °F 31% 29.74 in 10.0 mi North 9.2 mph - N/A   Clear
6:55 PM 71.6 °F 41.0 °F 33% 29.75 in 10.0 mi North 8.1 mph - N/A   Clear
7:15 PM 69.8 °F 41.0 °F 35% 29.76 in 10.0 mi NNW 4.6 mph - N/A   Clear
7:35 PM 68.0 °F 41.0 °F 37% 29.77 in 10.0 mi North 4.6 mph - N/A   Clear
7:55 PM 66.2 °F 37.4 °F 35% 29.78 in 10.0 mi North 4.6 mph - N/A   Clear
8:15 PM 64.4 °F 37.4 °F 37% 29.78 in 10.0 mi NNW 3.5 mph - N/A   Clear
8:35 PM 66.2 °F 35.6 °F 32% 29.78 in 10.0 mi North 11.5 mph - N/A   Clear
8:55 PM 64.4 °F 35.6 °F 34% 29.78 in 10.0 mi North 10.4 mph - N/A   Clear
9:15 PM 64.4 °F 35.6 °F 34% 29.80 in 10.0 mi North 9.2 mph - N/A   Clear
9:35 PM 64.4 °F 33.8 °F 32% 29.81 in 10.0 mi North 11.5 mph - N/A   Clear
9:55 PM 64.4 °F 33.8 °F 32% 29.82 in 10.0 mi North 10.4 mph - N/A   Clear
10:15 PM 64.4 °F 33.8 °F 32% 29.84 in 10.0 mi North 11.5 mph - N/A   Clear
10:35 PM 64.4 °F 32.0 °F 30% 29.84 in 10.0 mi North 13.8 mph - N/A   Clear
10:55 PM 62.6 °F 32.0 °F 32% 29.86 in 10.0 mi North 8.1 mph - N/A   Clear
11:15 PM 60.8 °F 32.0 °F 34% 29.87 in 10.0 mi North 11.5 mph - N/A   Clear
11:35 PM 60.8 °F 32.0 °F 34% 29.87 in 10.0 mi NNE 11.5 mph - N/A   Clear
11:55 PM 60.8 °F 32.0 °F 34% 29.87 in 10.0 mi NNE 12.7 mph - N/A   Clear